TimeAKST,TemperatureF,Dew PointF,Humidity,Sea Level PressureIn,VisibilityMPH,Wind Direction,Wind SpeedMPH,Gust SpeedMPH,PrecipitationIn,Events,Conditions,WindDirDegrees,DateUTC
12:16 AM,21.2,15.8,80,30.02,5.0,East,9.2,-,N/A,,Overcast,80,2013-11-20 09:16:00
12:36 AM,21.2,15.8,80,30.01,7.0,East,12.7,-,N/A,,Mostly Cloudy,100,2013-11-20 09:36:00
12:56 AM,21.2,15.8,80,30.01,10.0,East,9.2,-,N/A,,Mostly Cloudy,80,2013-11-20 09:56:00
1:16 AM,21.2,15.8,80,30.02,5.0,East,10.4,-,N/A,,Overcast,80,2013-11-20 10:16:00
1:36 AM,21.2,15.8,80,30.02,4.0,East,8.1,-,N/A,,Overcast,80,2013-11-20 10:36:00
1:56 AM,21.2,15.8,80,30.02,5.0,ENE,9.2,-,N/A,,Overcast,70,2013-11-20 10:56:00
2:16 AM,23.0,15.8,74,30.02,3.0,ENE,9.2,-,N/A,,Overcast,70,2013-11-20 11:16:00
2:36 AM,23.0,15.8,74,30.02,5.0,East,11.5,-,N/A,,Overcast,90,2013-11-20 11:36:00
2:56 AM,23.0,15.8,74,30.02,7.0,East,9.2,-,N/A,,Overcast,80,2013-11-20 11:56:00
3:16 AM,23.0,15.8,74,30.02,10.0,East,9.2,-,N/A,,Overcast,90,2013-11-20 12:16:00
3:36 AM,24.8,17.6,74,30.01,5.0,East,11.5,16.1,N/A,,Mostly Cloudy,90,2013-11-20 12:36:00
3:56 AM,24.8,19.4,80,30.01,9.0,East,12.7,-,N/A,,Mostly Cloudy,90,2013-11-20 12:56:00
4:16 AM,24.8,17.6,74,30.02,10.0,East,9.2,19.6,N/A,,Overcast,90,2013-11-20 13:16:00
4:36 AM,24.8,17.6,74,30.01,10.0,East,13.8,18.4,N/A,,Overcast,100,2013-11-20 13:36:00
4:56 AM,24.8,17.6,74,30.02,10.0,East,9.2,18.4,N/A,,Overcast,80,2013-11-20 13:56:00
5:16 AM,24.8,19.4,80,30.03,10.0,ENE,8.1,-,N/A,,Overcast,70,2013-11-20 14:16:00
5:36 AM,24.8,17.6,74,30.04,10.0,NNE,6.9,-,N/A,,Overcast,20,2013-11-20 14:36:00
5:56 AM,23.0,17.6,80,30.05,7.0,North,6.9,-,N/A,,Overcast,350,2013-11-20 14:56:00
6:16 AM,23.0,17.6,80,30.06,7.0,North,5.8,-,N/A,,Overcast,360,2013-11-20 15:16:00
6:36 AM,23.0,17.6,80,30.07,7.0,NNW,9.2,-,N/A,,Overcast,330,2013-11-20 15:36:00
6:56 AM,23.0,17.6,80,30.08,10.0,NNW,5.8,-,N/A,,Overcast,340,2013-11-20 15:56:00
7:16 AM,23.0,17.6,80,30.09,10.0,NNW,6.9,-,N/A,,Overcast,340,2013-11-20 16:16:00
7:36 AM,23.0,15.8,74,30.10,10.0,NNW,6.9,-,N/A,,Overcast,330,2013-11-20 16:36:00
7:56 AM,21.2,15.8,80,30.10,10.0,NNW,8.1,-,N/A,,Overcast,330,2013-11-20 16:56:00
8:16 AM,23.0,15.8,74,30.12,10.0,NNW,8.1,-,N/A,,Overcast,330,2013-11-20 17:16:00
8:36 AM,23.0,15.8,74,30.12,10.0,NNW,4.6,-,N/A,,Overcast,340,2013-11-20 17:36:00
8:56 AM,23.0,15.8,74,30.13,10.0,NNW,3.5,-,N/A,,Overcast,330,2013-11-20 17:56:00
9:16 AM,23.0,15.8,74,30.13,10.0,NNW,5.8,-,N/A,,Overcast,330,2013-11-20 18:16:00
9:36 AM,23.0,15.8,74,30.14,10.0,NW,4.6,-,N/A,,Overcast,320,2013-11-20 18:36:00
9:56 AM,23.0,17.6,80,30.14,10.0,North,4.6,-,N/A,,Overcast,350,2013-11-20 18:56:00
10:16 AM,23.0,17.6,80,30.14,10.0,NNW,9.2,-,N/A,,Overcast,330,2013-11-20 19:16:00
10:36 AM,23.0,17.6,80,30.15,1.0,NNW,3.5,-,N/A,,Overcast,340,2013-11-20 19:36:00
10:56 AM,24.8,17.6,74,30.14,0.5,NNW,4.6,-,N/A,,Overcast,330,2013-11-20 19:56:00
11:16 AM,24.8,19.4,80,30.15,0.5,NNW,3.5,-,N/A,,Overcast,330,2013-11-20 20:16:00
11:20 AM,24.8,19.4,80,30.14,1.0,NW,4.6,-,N/A,Snow,Light Snow,310,2013-11-20 20:20:00
11:36 AM,24.8,19.4,80,30.14,1.0,NNW,4.6,-,N/A,,Overcast,330,2013-11-20 20:36:00
11:56 AM,24.8,19.4,80,30.14,1.0,NNW,5.8,-,N/A,,Overcast,340,2013-11-20 20:56:00
12:16 PM,24.8,19.4,80,30.15,1.0,WNW,5.8,-,N/A,,Overcast,300,2013-11-20 21:16:00
12:36 PM,24.8,19.4,80,30.14,1.0,NW,5.8,-,N/A,,Overcast,320,2013-11-20 21:36:00
12:56 PM,26.6,21.2,80,30.14,1.0,NNW,5.8,-,N/A,,Overcast,340,2013-11-20 21:56:00
1:16 PM,26.6,21.2,80,30.14,1.0,North,5.8,-,N/A,,Overcast,350,2013-11-20 22:16:00
1:30 PM,26.6,21.2,80,30.13,0.5,NW,4.6,-,N/A,Snow,Snow,320,2013-11-20 22:30:00
1:36 PM,26.6,21.2,80,30.13,0.5,North,5.8,-,N/A,,Overcast,360,2013-11-20 22:36:00
1:56 PM,26.6,21.2,80,30.13,0.5,North,4.6,-,N/A,,Overcast,350,2013-11-20 22:56:00
2:16 PM,26.6,21.2,80,30.13,0.5,NNW,5.8,-,N/A,,Overcast,340,2013-11-20 23:16:00
2:36 PM,26.6,21.2,80,30.13,0.5,NW,3.5,-,N/A,,Overcast,310,2013-11-20 23:36:00
2:56 PM,26.6,21.2,80,30.13,0.5,NNW,8.1,-,N/A,,Overcast,330,2013-11-20 23:56:00
3:16 PM,26.6,21.2,80,30.12,0.5,NNW,8.1,-,N/A,,Overcast,330,2013-11-21 00:16:00
3:36 PM,26.6,21.2,80,30.12,0.5,NNW,9.2,-,N/A,,Overcast,330,2013-11-21 00:36:00
3:56 PM,26.6,21.2,80,30.13,0.5,NNW,9.2,-,N/A,,Overcast,330,2013-11-21 00:56:00
4:16 PM,26.6,21.2,80,30.13,0.5,NNW,11.5,-,N/A,,Overcast,330,2013-11-21 01:16:00
4:36 PM,26.6,21.2,80,30.13,0.5,NNW,10.4,-,N/A,,Overcast,330,2013-11-21 01:36:00
4:56 PM,26.6,21.2,80,30.14,0.5,NNW,5.8,-,N/A,,Overcast,340,2013-11-21 01:56:00
5:16 PM,26.6,21.2,80,30.14,2.5,NNW,6.9,-,N/A,,Overcast,340,2013-11-21 02:16:00
5:36 PM,26.6,21.2,80,30.14,2.5,NNW,8.1,-,N/A,,Overcast,330,2013-11-21 02:36:00
5:56 PM,26.6,21.2,80,30.15,2.5,NNW,6.9,-,N/A,,Overcast,340,2013-11-21 02:56:00
6:16 PM,26.6,21.2,80,30.15,2.5,NNW,5.8,-,N/A,,Overcast,330,2013-11-21 03:16:00
6:36 PM,26.6,21.2,80,30.15,2.5,NW,5.8,-,N/A,,Overcast,310,2013-11-21 03:36:00
6:56 PM,26.6,21.2,80,30.15,2.5,NNW,4.6,-,N/A,,Overcast,330,2013-11-21 03:56:00
7:16 PM,26.6,21.2,80,30.15,2.5,NNW,6.9,-,N/A,,Overcast,330,2013-11-21 04:16:00
7:36 PM,24.8,19.4,80,30.15,2.5,NNW,6.9,-,N/A,,Overcast,330,2013-11-21 04:36:00
7:56 PM,24.8,19.4,80,30.15,2.5,NW,8.1,-,N/A,,Overcast,320,2013-11-21 04:56:00
8:16 PM,24.8,19.4,80,30.15,2.0,NNW,9.2,-,N/A,,Overcast,330,2013-11-21 05:16:00
8:36 PM,24.8,21.2,86,30.15,2.0,NNW,5.8,-,N/A,,Overcast,330,2013-11-21 05:36:00
8:56 PM,24.8,19.4,80,30.15,2.0,NNW,6.9,-,N/A,,Overcast,330,2013-11-21 05:56:00
9:16 PM,24.8,19.4,80,30.15,2.0,NW,6.9,-,N/A,,Overcast,310,2013-11-21 06:16:00
9:36 PM,24.8,19.4,80,30.14,2.0,NW,4.6,-,N/A,,Overcast,320,2013-11-21 06:36:00
9:56 PM,24.8,19.4,80,30.14,1.8,WNW,6.9,-,N/A,,Overcast,300,2013-11-21 06:56:00
10:16 PM,24.8,19.4,80,30.14,1.8,NNW,8.1,-,N/A,,Overcast,330,2013-11-21 07:16:00
10:36 PM,24.8,19.4,80,30.13,2.0,NNW,8.1,-,N/A,,Overcast,330,2013-11-21 07:36:00
10:56 PM,24.8,19.4,80,30.13,2.0,NNW,6.9,-,N/A,,Overcast,340,2013-11-21 07:56:00
11:16 PM,26.6,21.2,80,30.13,2.0,NNW,5.8,-,N/A,,Overcast,340,2013-11-21 08:16:00
11:36 PM,26.6,21.2,80,30.12,1.8,NNW,3.5,-,N/A,,Overcast,340,2013-11-21 08:36:00
11:56 PM,26.6,21.2,80,30.11,2.0,NNW,4.6,-,N/A,,Overcast,330,2013-11-21 08:56:00